Green Bay, WI

4:32 PM CDT on August 24, 2016 (GMT -0500)
Austin Straubel International

Weather History for KGRB - March, 2013

Change the Weather History Date:

Friday, March 8, 2013

  Actual Average Record
Temperature  
Mean Temperature 22 °F 27 °F  
Max Temperature 36 °F 36 °F 74 °F (2000)
Min Temperature 8 °F 19 °F -9 °F (1960)
Degree Days  
Heating Degree Days 43 38  
Month to date heating degree days 349 311  
Since 1 July heating degree days 5792 6151  
Cooling Degree Days 0 0  
Month to date cooling degree days 0 0  
Year to date cooling degree days 0 0  
Moisture  
Dew Point 18 °F    
Average Humidity 78    
Maximum Humidity 92    
Minimum Humidity 64    
Precipitation  
Precipitation 0.00 in 0.05 in 0.73 in (2009)
Month to date precipitation T 0.45  
Year to date precipitation 4.66 2.69  
Snow  
Snow 0.00 in 0.40 in 6.00 in (2009)
Month to date snowfall T 2.8  
Since 1 July snowfall 58.0 43.0  
Snow Depth 7.00 in    
Sea Level Pressure  
Sea Level Pressure 30.44 in    
Wind  
Wind Speed 5 mph (South)    
Max Wind Speed 13 mph    
Max Gust Speed 16 mph    
Visibility 9 miles    
Events      
T = Trace of Precipitation, MM = Missing Value Source: NWS Daily Summary

Daily Weather History Graph

Daily Weather History Graph

Search for Another Location

Airport or City:

Trip Planner

Search our weather history database for the weather conditions in past years. The results will help you decide how hot, cold, wet, or windy it might be!

Date:

Astronomy

Mar. 08, 2013 Rise Set
Actual Time 6:17 AM CST 5:50 PM CST
Civil Twilight 5:48 AM CST 6:19 PM CST
Nautical Twilight 5:14 AM CST 6:52 PM CST
Astronomical Twilight 4:40 AM CST 7:26 PM CST
Moon 4:07 AM CST (3/8) 2:39 PM CST (3/8)
Length of Visible Light 12h 30m
Length of Day
11h 32m
Waning Crescent, 11% of the Moon is Illuminated
Mar 8
Waning Crescent
Mar 11
New
Mar 19
First Quarter
Mar 27
Full
Apr 2
Last Quarter

Hourly Weather History & Observations

Time (CST) Temp. Windchill Dew Point Humidity Pressure Visibility Wind Dir Wind Speed Gust Speed Precip Events Conditions
12:53 AM 14.0 °F 8.2 °F 9.0 °F 80% 30.48 in 10.0 mi NNE 3.5 mph - N/A   Clear
1:53 AM 12.9 °F - 10.0 °F 88% 30.49 in 10.0 mi Calm Calm - N/A   Clear
2:53 AM 10.0 °F - 7.0 °F 87% 30.50 in 8.0 mi Calm Calm - N/A   Clear
3:53 AM 10.0 °F - 8.1 °F 92% 30.50 in 8.0 mi Calm Calm - N/A   Clear
4:53 AM 9.0 °F - 6.1 °F 88% 30.50 in 8.0 mi Calm Calm - N/A   Clear
5:53 AM 10.0 °F 3.6 °F 7.0 °F 87% 30.51 in 8.0 mi NNE 3.5 mph - N/A   Clear
6:53 AM 9.0 °F - 6.1 °F 88% 30.51 in 6.0 mi Calm Calm - N/A   Clear
7:53 AM 15.1 °F - 10.9 °F 84% 30.51 in 8.0 mi Calm Calm - N/A   Clear
8:53 AM 19.9 °F - 15.1 °F 81% 30.50 in 10.0 mi Calm Calm - N/A   Clear
9:53 AM 27.0 °F 21.6 °F 19.9 °F 75% 30.50 in 9.0 mi SSE 4.6 mph - N/A   Clear
10:53 AM 30.0 °F 23.2 °F 21.9 °F 72% 30.49 in 10.0 mi South 6.9 mph - N/A   Clear
11:53 AM 32.0 °F 23.6 °F 23.0 °F 69% 30.48 in 10.0 mi South 10.4 mph - N/A   Clear
12:53 PM 34.0 °F 27.2 °F 24.1 °F 67% 30.46 in 10.0 mi SSW 8.1 mph - N/A   Clear
1:53 PM 35.1 °F 27.4 °F 24.1 °F 64% 30.43 in 9.0 mi South 10.4 mph - N/A   Clear
2:53 PM 35.1 °F 27.9 °F 25.0 °F 67% 30.42 in 9.0 mi South 9.2 mph - N/A   Clear
3:53 PM 36.0 °F 29.6 °F 25.0 °F 64% 30.40 in 9.0 mi South 8.1 mph - N/A   Clear
4:53 PM 34.0 °F 26.6 °F 25.0 °F 70% 30.39 in 9.0 mi SSE 9.2 mph - N/A   Clear
5:53 PM 33.1 °F 27.7 °F 25.0 °F 72% 30.40 in 10.0 mi SE 5.8 mph - N/A   Clear
6:53 PM 30.0 °F 22.4 °F 25.0 °F 82% 30.40 in 10.0 mi SSE 8.1 mph - N/A   Clear
7:53 PM 28.9 °F 21.1 °F 24.1 °F 82% 30.39 in 9.0 mi South 8.1 mph - N/A   Clear
8:53 PM 28.9 °F 21.1 °F 24.1 °F 82% 30.38 in 9.0 mi South 8.1 mph - N/A   Clear
9:53 PM 28.0 °F 20.0 °F 24.1 °F 85% 30.36 in 7.0 mi South 8.1 mph - N/A   Clear
10:53 PM 28.0 °F 20.8 °F 24.1 °F 85% 30.34 in 6.0 mi South 6.9 mph - N/A   Clear
11:53 PM 27.0 °F 21.6 °F 23.0 °F 85% 30.32 in 6.0 mi South 4.6 mph - N/A   Clear